Date String (YYYY-MM-DD hh:mm:ss) UTC,Instrument flags,Ambient pressure (hPa),Sample flow (lpm),Bypass flow (lpm),Sample temperature (°C),Ambient temperature (°C),ASC tube jacket temperature (°C),LED temperature (°C),Box temperature (°C),Sample RH (%),Span deviation,Mass concentration (μg/m³),Mass concentration (μg/m³),Mass concentration (μg/m³)
DateTimeUTC,F1_M11,P_M11,Q1_M11,Q2_M11,T1_M11,T2_M11,T3_M11,T4_M11,T5_M11,U1_M11,ZSPAN_M11,X0_M11,X2_M11,X1_M11
2022-10-09 00:00:00,,0833.0,5.02,0.00,30.0,28.7,00.0,38.7,31.9,17.2,-001.4,0020.24,0011.29,0010.54
2022-10-09 00:01:00,,0833.0,4.99,0.00,30.0,28.8,00.0,38.7,31.9,17.1,-001.4,0020.31,0011.27,0010.52
2022-10-09 00:02:00,,0833.0,5.00,0.00,30.0,28.9,00.0,38.7,31.9,17.1,-001.4,0019.09,0011.26,0010.51
2022-10-09 00:03:00,,0833.0,4.99,0.00,30.1,29.0,00.0,38.7,32.0,17.2,-001.2,0018.38,0011.27,0010.50
2022-10-09 00:04:00,,0833.0,5.01,0.00,30.1,29.0,00.0,38.8,32.0,17.1,-001.1,0018.89,0011.31,0010.50
2022-10-09 00:05:00,,0833.0,5.00,0.00,30.1,29.0,00.0,38.8,32.0,17.1,-000.9,0018.66,0011.31,0010.47
2022-10-09 00:06:00,,0833.1,4.99,0.00,30.1,29.1,00.0,38.8,32.0,17.1,-000.7,0018.53,0011.28,0010.44
2022-10-09 00:07:00,,0833.0,5.01,0.00,30.1,29.1,00.0,38.8,32.1,17.0,-000.7,0019.07,0011.24,0010.42
2022-10-09 00:08:00,,0833.0,5.00,0.00,30.2,29.2,00.0,38.8,32.1,17.0,-000.7,0019.70,0011.26,0010.43
2022-10-09 00:09:00,,0833.1,5.00,0.00,30.2,29.1,00.0,38.9,32.1,16.9,-000.6,0019.26,0011.25,0010.40
2022-10-09 00:10:00,,0833.1,5.00,0.00,30.2,27.9,00.0,38.9,31.9,16.9,-000.6,0018.96,0011.19,0010.36
2022-10-09 00:11:00,,0833.1,5.00,0.00,30.1,26.7,00.0,38.8,31.7,16.9,-000.9,0018.54,0011.20,0010.36
2022-10-09 00:12:00,,0833.1,5.00,0.00,30.0,26.7,00.0,38.8,31.7,17.0,-000.9,0018.30,0011.25,0010.37
2022-10-09 00:13:00,,0833.2,5.00,0.00,29.9,26.9,00.0,38.7,31.5,17.0,-000.8,0018.48,0011.27,0010.36
2022-10-09 00:14:00,,0833.2,5.01,0.00,29.9,27.3,00.0,38.7,31.6,16.9,-001.0,0018.35,0011.23,0010.35
2022-10-09 00:15:00,,0833.1,5.00,0.00,29.9,27.6,00.0,38.7,31.6,16.9,-001.0,0017.96,0011.24,0010.38
2022-10-09 00:16:00,,0833.2,4.99,0.00,29.9,27.9,00.0,38.7,31.6,17.0,-000.9,0017.72,0011.24,0010.40
2022-10-09 00:17:00,,0833.1,4.99,0.00,29.9,28.1,00.0,38.7,31.7,17.1,-000.7,0017.94,0011.28,0010.44
2022-10-09 00:18:00,,0833.1,5.00,0.00,29.9,28.3,00.0,38.6,31.7,17.1,-000.6,0018.03,0011.32,0010.48
2022-10-09 00:19:00,,0833.1,5.00,0.00,29.9,28.4,00.0,38.6,31.7,17.1,-000.6,0017.21,0011.32,0010.48
2022-10-09 00:20:00,,0833.1,4.99,0.00,29.9,28.5,00.0,38.6,31.7,17.0,-000.7,0018.19,0011.31,0010.47
2022-10-09 00:21:00,,0833.1,5.01,0.00,29.9,28.6,00.0,38.7,31.7,17.0,-000.6,0018.45,0011.37,0010.51
2022-10-09 00:22:00,,0833.1,4.99,0.00,29.9,28.7,00.0,38.7,31.8,17.0,-000.4,0019.07,0011.43,0010.54
2022-10-09 00:23:00,,0833.1,5.01,0.00,29.9,28.8,00.0,38.7,31.9,17.0,-000.6,0019.16,0011.39,0010.54
2022-10-09 00:24:00,,0833.1,5.00,0.00,30.0,28.8,00.0,38.7,31.9,17.0,-000.9,0019.21,0011.37,0010.56
2022-10-09 00:25:00,,0833.1,4.99,0.00,30.0,28.9,00.0,38.7,31.9,16.9,-000.9,0019.79,0011.46,0010.57
2022-10-09 00:26:00,,0833.1,5.00,0.00,30.0,28.9,00.0,38.7,31.9,16.8,-001.2,0020.42,0011.48,0010.59
2022-10-09 00:27:00,,0833.1,5.01,0.00,30.0,29.0,00.0,38.7,32.0,16.8,-001.0,0020.44,0011.49,0010.61
2022-10-09 00:28:00,,0833.1,4.99,0.00,30.1,29.0,00.0,38.8,32.0,16.8,-000.9,0020.57,0011.47,0010.59
2022-10-09 00:29:00,,0833.1,5.01,0.00,30.1,29.0,00.0,38.8,32.0,16.8,-000.9,0021.25,0011.47,0010.58
2022-10-09 00:30:00,,0833.1,4.99,0.00,30.1,29.1,00.0,38.8,32.0,16.8,-000.7,0021.55,0011.48,0010.59
2022-10-09 00:31:00,,0833.1,5.01,0.00,30.1,29.1,00.0,38.8,32.1,16.8,-000.5,0020.50,0011.49,0010.60
2022-10-09 00:32:00,,0833.2,5.00,0.00,30.2,28.6,00.0,38.8,32.0,16.8,-000.7,0020.48,0011.50,0010.62
2022-10-09 00:33:00,,0833.1,5.00,0.00,30.1,27.0,00.0,38.8,31.9,16.7,-000.6,0020.58,0011.52,0010.65
2022-10-09 00:34:00,,0833.2,5.00,0.00,30.0,26.7,00.0,38.7,31.7,16.8,-000.2,0021.48,0011.62,0010.70
2022-10-09 00:35:00,,0833.1,4.99,0.00,29.9,26.8,00.0,38.7,31.6,16.9,0000.1,0021.47,0011.73,0010.77
2022-10-09 00:36:00,,0833.1,5.02,0.00,29.9,27.1,00.0,38.7,31.6,16.9,-000.0,0021.71,0011.76,0010.81
2022-10-09 00:37:00,,0833.2,4.99,0.00,29.8,27.4,00.0,38.6,31.6,17.0,0000.3,0021.74,0011.76,0010.82
2022-10-09 00:38:00,,0833.1,4.99,0.00,29.8,27.7,00.0,38.6,31.6,17.0,0000.2,0022.23,0011.79,0010.84
2022-10-09 00:39:00,,0833.1,5.00,0.00,29.8,27.9,00.0,38.6,31.6,17.0,-000.0,0022.11,0011.84,0010.88
2022-10-09 00:40:00,,0833.1,5.00,0.00,29.8,28.1,00.0,38.6,31.6,17.0,-000.1,0021.85,0011.88,0010.92
2022-10-09 00:41:00,,0833.1,4.99,0.00,29.8,28.3,00.0,38.6,31.7,17.1,-000.1,0021.58,0011.93,0010.94
2022-10-09 00:42:00,,0833.1,5.01,0.00,29.8,28.4,00.0,38.6,31.7,17.4,-000.0,0021.69,0011.91,0010.94
2022-10-09 00:43:00,,0833.1,5.00,0.00,29.8,28.5,00.0,38.6,31.7,17.6,0000.1,0021.49,0011.84,0010.87
2022-10-09 00:44:00,,0833.1,5.01,0.00,29.8,28.5,00.0,38.6,31.7,17.5,-000.0,0020.93,0011.72,0010.79
2022-10-09 00:45:00,,0833.2,4.99,0.00,29.9,28.6,00.0,38.6,31.7,17.4,-000.2,0019.76,0011.63,0010.73
2022-10-09 00:46:00,,0833.1,5.00,0.00,29.9,28.7,00.0,38.6,31.7,17.3,-000.2,0019.74,0011.56,0010.66
2022-10-09 00:47:00,,0833.2,5.01,0.00,29.9,28.7,00.0,38.6,31.8,17.2,0000.3,0019.34,0011.50,0010.62
2022-10-09 00:48:00,,0833.1,4.99,0.00,29.9,28.7,00.0,38.6,31.9,17.2,0000.5,0018.56,0011.46,0010.59
2022-10-09 00:49:00,,0833.1,5.01,0.00,29.9,28.8,00.0,38.6,31.9,17.3,0000.4,0017.95,0011.40,0010.56
2022-10-09 00:50:00,,0833.1,4.99,0.00,30.0,28.8,00.0,38.7,31.9,17.3,0000.3,0018.00,0011.34,0010.52
2022-10-09 00:51:00,,0833.1,5.00,0.00,30.0,28.9,00.0,38.7,31.9,17.2,0000.3,0018.09,0011.33,0010.49
2022-10-09 00:52:00,,0833.1,4.99,0.00,30.0,28.9,00.0,38.7,31.9,17.2,0000.3,0018.25,0011.27,0010.45
2022-10-09 00:53:00,,0833.0,5.01,0.00,30.0,28.9,00.0,38.7,31.9,17.2,0000.3,0018.16,0011.26,0010.44
2022-10-09 00:54:00,,0833.1,4.99,0.00,30.0,28.9,00.0,38.7,32.0,17.1,0000.2,0018.37,0011.31,0010.47
2022-10-09 00:55:00,,0833.1,5.01,0.00,30.1,29.0,00.0,38.7,32.0,17.1,0000.4,0019.19,0011.36,0010.48
2022-10-09 00:56:00,,0833.1,4.99,0.00,30.1,29.0,00.0,38.8,32.0,17.1,0000.4,0019.22,0011.35,0010.49
2022-10-09 00:57:00,,0833.1,5.01,0.00,30.1,29.0,00.0,38.8,32.0,17.1,0000.1,0018.77,0011.32,0010.51
2022-10-09 00:58:00,,0833.1,4.99,0.00,30.1,29.0,00.0,38.8,32.0,17.0,-000.2,0018.52,0011.32,0010.51
2022-10-09 00:59:00,,0833.1,5.01,0.00,30.1,29.0,00.0,38.8,32.0,17.0,-000.6,0018.68,0011.36,0010.54
